Regional Weather Roundup
Issued by NWS

Home | Current Version | Previous Version | Text Only | Print | Product List | Glossary On
Versions: 1 2 3 4 5 6 7 8 9 10 11 12 13 14 15 16 17 18 19 20 21 22 23 24 25 26 27 28 29 30 31 32 33 34 35 36 37 38 39 40 41 42 43 44 45 46 47 48 49 50
000
ASUS44 KMEG 151810
RWRTN
TENNESSEE HOURLY STATE WEATHER ROUNDUP
NATIONAL WEATHER SERVICE MEMPHIS TN
100 PM CDT SUN SEP 15 2019

TNZ002-004-019-021-049-052-054-088>092-151900-
WEST TENNESSEE

CITY           SKY/WX    TMP DP  RH WIND       PRES   REMARKS
MEMPHIS INTL   FAIR      94  70  45 SW3       30.13F HX 100
NWS MEMPHIS      N/A     94 N/A N/A MISG        N/A
JACKSON        FAIR      94  71  47 VRB3      30.14F HX 101
DYERSBURG      PTSUNNY   92  72  51 VRB3      30.14F HX  99
SOMERVILLE     SUNNY     93  70  46 VRB5      30.12F HX  99
COVINGTON      SUNNY     91  70  49 S5        30.12F HX  97
UNION CITY     SUNNY     93  70  46 NW7       30.11F HX  99
BOLIVAR        SUNNY     90  72  55 NE6       30.13F HX  96
PARIS          SUNNY     91  66  43 VRB5G13   30.13F HX  94
LEXINGTON      SUNNY     93  70  46 CALM      30.13F HX  99
SELMER         SUNNY     91  68  46 SE7       30.13F HX  95
SAVANNAH       SUNNY     91  72  52 CALM      30.13F HX  98
$$

TNZ008-025-027-028-033-062-065-066-151900-
NORTH MIDDLE TENNESSEE

CITY           SKY/WX    TMP DP  RH WIND       PRES   REMARKS
NASHVILLE      FAIR      94  65  38 NW6       30.15F HX  96
DICKSON        PTCLDY    91  64  40 VRB6      30.14F HX  93
PORTLAND       SUNNY     90  66  45 VRB3      30.15F HX  92
CLARKSVILLE    FAIR      92  69  47 VRB3      30.14F HX  97
LEBANON        CLEAR     91  68  46 N8G15     30.13F HX  95
SMYRNA         FAIR      94  66  39 N10       30.15F HX  97
MURFREESBORO   CLEAR     91  66  43 N5        30.12F HX  94
COOKEVILLE     SUNNY     90  66  45 CALM      30.16F HX  92
LIVINGSTON     CLEAR     88  61  40 CALM      30.18F
CROSSVILLE     FAIR      85  60  42 W3        30.22F
ROCKWOOD       CLEAR     86  61  42 VRB6      30.19F
$$

TNZ061-075-076-078-094-096-097-151900-
SOUTH MIDDLE TENNESSEE

CITY           SKY/WX    TMP DP  RH WIND       PRES   REMARKS
LAWRENCEBURG   PTCLDY    90  68  48 NW7       30.15F HX  93
LEWISBURG      CLEAR     91  64  40 CALM      30.14F HX  93
FAYETTEVILLE   SUNNY     90  68  48 N6        30.15F HX  93
TULLAHOMA      SUNNY     88  64  45 CALM      30.16F
WINCHESTER     SUNNY     91  64  40 N7        30.15F HX  93
MCMINNVILLE    SUNNY     91  64  40 N5G12     30.16F HX  93
COLUMBIA       SUNNY     91  64  40 NE6       30.12F HX  93
SHELBYVILLE    SUNNY     91  68  46 NW7       30.15F HX  95
$$

TNZ017-018-042-046-047-151900-
NORTHEAST TENNESSEE

CITY           SKY/WX    TMP DP  RH WIND       PRES   REMARKS
TRI CITIES     FAIR      84  58  40 S7        30.20F
ELIZABETHTON   FAIR      88  48  25 VRB7G13   30.18F
GREENEVILLE    CLEAR     86  54  32 NW9       30.19F
$$

TNZ012-013-036-069-073-074-151900-
CENTRAL EAST TENNESSEE

CITY           SKY/WX    TMP DP  RH WIND       PRES   REMARKS
KNOXVILLE      FAIR      89  60  37 NW6       30.15F
OAK RIDGE      FAIR      91  62  37 CALM      30.17  HX  91
DOWNTOWN KNOXV SUNNY     90  64  43 S6        30.16F HX  91
GATLINBURG     SUNNY     90  61  37 CALM      30.15F
MORRISTOWN     SUNNY     90  48  24 N10       30.17F
JACKSBORO      SUNNY     88  61  40 S5        30.20F
$$

TNZ083-085-099-151900-
SOUTHEAST TENNESSEE

CITY           SKY/WX    TMP DP  RH WIND       PRES   REMARKS
CHATTANOOGA    FAIR      92  66  42 VRB5      30.14F HX  94
DAYTON         CLEAR     91  64  40 N3        30.13F HX  93
$$

SKY/WX REPORTED AS FAIR MEANS FEW OR NO CLOUDS BELOW
12 THOUSAND FEET.




USA.gov is the U.S. government's official web portal to all federal, state and local government web resources and services.